Location: Canet
(43.3261°N, 5.3723°E)
Time: 19:08:14
(UTC+00:00)

BREEZE-M DEB (TANK) - Pass Details

Date: 24 January 2021
Orbit: 312 x 13782 km, 49.6° (Epoch: 07 March)

Event Time Altitude Azimuth Distance (km) Brightness Sun altitude
Rises 18:29:37 0° 298° (WNW) 2,086 6.7 -19.9°
Reaches altitude 10° 18:31:25 10° 312° (NW) 1,214 5.1 -20.2°
Enters shadow 18:32:24 21° 332° (NNW) 827 3.9 -20.4°
